Time,TemperatureF,DewpointF,PressureIn,WindDirection,WindDirectionDegrees,WindSpeedMPH,WindSpeedGustMPH,Humidity,HourlyPrecipIn,Conditions,Clouds,dailyrainin,SoftwareType,DateUTC
2013-03-14 00:04:00,26.8,9.8,30.23,WSW,248,6.1,10.7,44,0.00,,,0.00,WSDL version 420,2013-03-14 04:04:00,
2013-03-14 00:09:00,26.6,9.8,30.23,West,276,8.3,14.8,44,0.00,,,0.00,WSDL version 420,2013-03-14 04:09:00,
2013-03-14 00:14:00,26.6,9.6,30.23,WSW,243,4.6,14.8,44,0.00,,,0.00,WSDL version 420,2013-03-14 04:14:00,
2013-03-14 00:19:00,26.4,9.5,30.23,West,270,6.9,11.0,44,0.00,,,0.00,WSDL version 420,2013-03-14 04:19:00,
2013-03-14 00:24:00,26.3,9.4,30.23,ESE,122,9.0,11.0,44,0.00,,,0.00,WSDL version 420,2013-03-14 04:24:00,
2013-03-14 00:29:00,26.4,9.4,30.23,WNW,303,5.8,11.0,44,0.00,,,0.00,WSDL version 420,2013-03-14 04:29:00,
2013-03-14 00:34:00,26.2,9.3,30.23,WNW,287,4.4,10.3,44,0.00,,,0.00,WSDL version 420,2013-03-14 04:34:00,
2013-03-14 00:39:00,26.2,9.3,30.26,SW,223,4.4,11.0,44,0.00,,,0.00,WSDL version 420,2013-03-14 04:39:00,
2013-03-14 00:44:00,26.1,9.2,30.26,WSW,248,7.8,16.6,44,0.00,,,0.00,WSDL version 420,2013-03-14 04:44:00,
2013-03-14 00:49:00,26.1,9.1,30.23,WNW,303,4.3,16.6,44,0.00,,,0.00,WSDL version 420,2013-03-14 04:49:00,
2013-03-14 00:54:00,26.1,8.9,30.23,SW,230,5.4,12.1,44,0.00,,,0.00,WSDL version 420,2013-03-14 04:54:00,
2013-03-14 00:59:00,26.0,9.1,30.23,West,259,6.8,14.5,43,0.00,,,0.00,WSDL version 420,2013-03-14 04:59:00,
2013-03-14 01:04:00,25.9,9.0,30.23,West,280,5.8,14.5,44,0.00,,,0.00,WSDL version 420,2013-03-14 05:04:00,
2013-03-14 01:09:00,25.7,8.7,30.26,WSW,245,5.6,12.8,44,0.00,,,0.00,WSDL version 420,2013-03-14 05:09:00,
2013-03-14 01:14:00,25.7,8.7,30.26,WNW,283,4.3,12.8,44,0.00,,,0.00,WSDL version 420,2013-03-14 05:14:00,
2013-03-14 01:19:00,25.6,8.7,30.26,WSW,250,5.6,12.1,44,0.00,,,0.00,WSDL version 420,2013-03-14 05:19:00,
2013-03-14 01:24:00,25.5,8.6,30.22,West,265,5.2,12.1,43,0.00,,,0.00,WSDL version 420,2013-03-14 05:24:00,
2013-03-14 01:29:00,25.5,8.6,30.23,WSW,250,5.0,8.7,44,0.00,,,0.00,WSDL version 420,2013-03-14 05:29:00,
2013-03-14 01:34:00,25.5,8.5,30.22,West,273,4.0,9.8,44,0.00,,,0.00,WSDL version 420,2013-03-14 05:34:00,
2013-03-14 01:39:00,25.3,8.5,30.23,West,278,5.9,13.0,44,0.00,,,0.00,WSDL version 420,2013-03-14 05:39:00,
2013-03-14 01:44:00,25.3,8.3,30.22,West,264,3.7,13.0,44,0.00,,,0.00,WSDL version 420,2013-03-14 05:44:00,
2013-03-14 01:49:00,25.3,8.5,30.23,WNW,303,3.4,7.8,44,0.00,,,0.00,WSDL version 420,2013-03-14 05:49:00,
2013-03-14 01:54:00,25.3,8.5,30.23,WSW,256,5.4,14.3,44,0.00,,,0.00,WSDL version 420,2013-03-14 05:54:00,
2013-03-14 01:59:00,25.3,8.4,30.23,WNW,300,2.4,14.3,44,0.00,,,0.00,WSDL version 420,2013-03-14 05:59:00,
2013-03-14 02:04:00,25.3,8.5,30.23,WNW,293,3.0,7.4,45,0.00,,,0.00,WSDL version 420,2013-03-14 06:04:00,
2013-03-14 02:09:00,25.2,8.4,30.23,WSW,254,1.9,7.6,44,0.00,,,0.00,WSDL version 420,2013-03-14 06:09:00,
2013-03-14 02:14:00,25.2,8.5,30.23,West,280,3.6,8.1,44,0.00,,,0.00,WSDL version 420,2013-03-14 06:14:00,
2013-03-14 02:19:00,25.3,8.6,30.22,West,278,4.3,8.7,44,0.00,,,0.00,WSDL version 420,2013-03-14 06:19:00,
2013-03-14 02:24:00,25.2,8.3,30.22,WNW,295,4.6,8.7,44,0.00,,,0.00,WSDL version 420,2013-03-14 06:24:00,
2013-03-14 02:29:00,25.2,8.3,30.22,NW,323,3.5,9.6,44,0.00,,,0.00,WSDL version 420,2013-03-14 06:29:00,
2013-03-14 02:34:00,25.1,8.2,30.22,WSW,255,5.9,11.9,44,0.00,,,0.00,WSDL version 420,2013-03-14 06:34:00,
2013-03-14 02:39:00,25.2,8.7,30.23,WNW,284,5.3,11.9,45,0.00,,,0.00,WSDL version 420,2013-03-14 06:39:00,
2013-03-14 02:44:00,25.2,8.8,30.23,West,273,2.2,10.3,45,0.00,,,0.00,WSDL version 420,2013-03-14 06:44:00,
2013-03-14 02:49:00,25.2,8.8,30.23,WNW,290,4.7,8.1,45,0.00,,,0.00,WSDL version 420,2013-03-14 06:49:00,
2013-03-14 02:54:00,25.1,8.6,30.23,North,360,2.9,8.1,45,0.00,,,0.00,WSDL version 420,2013-03-14 06:54:00,
2013-03-14 02:59:00,25.2,8.8,30.23,WNW,303,2.9,4.3,45,0.00,,,0.00,WSDL version 420,2013-03-14 06:59:00,
2013-03-14 03:04:00,25.1,8.7,30.23,East,88,2.2,8.1,45,0.00,,,0.00,WSDL version 420,2013-03-14 07:04:00,
2013-03-14 03:09:00,25.1,9.1,30.23,West,262,4.2,8.9,46,0.00,,,0.00,WSDL version 420,2013-03-14 07:09:00,
2013-03-14 03:14:00,25.2,9.4,30.23,NNW,333,1.0,8.9,47,0.00,,,0.00,WSDL version 420,2013-03-14 07:14:00,
2013-03-14 03:19:00,25.1,9.6,30.23,West,262,2.9,9.2,47,0.00,,,0.00,WSDL version 420,2013-03-14 07:19:00,
2013-03-14 03:24:00,25.2,9.8,30.23,WSW,255,4.5,13.2,48,0.00,,,0.00,WSDL version 420,2013-03-14 07:24:00,
2013-03-14 03:29:00,25.0,9.6,30.23,SW,221,1.1,13.2,48,0.00,,,0.00,WSDL version 420,2013-03-14 07:29:00,
2013-03-14 03:34:00,25.0,9.5,30.23,WSW,238,1.8,7.2,47,0.00,,,0.00,WSDL version 420,2013-03-14 07:34:00,
2013-03-14 03:39:00,25.0,9.7,30.23,NW,305,1.9,6.5,47,0.00,,,0.00,WSDL version 420,2013-03-14 07:39:00,
2013-03-14 03:44:00,24.9,9.8,30.23,West,265,3.2,7.8,48,0.00,,,0.00,WSDL version 420,2013-03-14 07:44:00,
2013-03-14 03:49:00,25.0,9.8,30.23,West,273,1.9,7.8,48,0.00,,,0.00,WSDL version 420,2013-03-14 07:49:00,
2013-03-14 03:54:00,24.9,10.0,30.23,SW,231,3.5,6.7,48,0.00,,,0.00,WSDL version 420,2013-03-14 07:54:00,
2013-03-14 03:59:00,24.6,9.6,30.23,ENE,73,2.0,6.7,48,0.00,,,0.00,WSDL version 420,2013-03-14 07:59:00,
2013-03-14 04:04:00,24.4,9.4,30.23,ESE,118,2.6,6.3,48,0.00,,,0.00,WSDL version 420,2013-03-14 08:04:00,
2013-03-14 04:09:00,24.4,9.6,30.23,WSW,256,3.1,5.6,49,0.00,,,0.00,WSDL version 420,2013-03-14 08:09:00,
2013-03-14 04:14:00,24.4,9.8,30.23,SW,218,3.7,6.0,49,0.00,,,0.00,WSDL version 420,2013-03-14 08:14:00,
2013-03-14 04:19:00,24.4,9.9,30.23,West,270,5.6,7.8,49,0.00,,,0.00,WSDL version 420,2013-03-14 08:19:00,
2013-03-14 04:24:00,24.3,9.9,30.24,East,87,3.8,12.1,50,0.00,,,0.00,WSDL version 420,2013-03-14 08:24:00,
2013-03-14 04:29:00,24.2,9.6,30.24,NNE,28,3.7,12.1,49,0.00,,,0.00,WSDL version 420,2013-03-14 08:29:00,
2013-03-14 04:34:00,24.1,9.4,30.24,SSW,205,3.5,8.5,49,0.00,,,0.00,WSDL version 420,2013-03-14 08:34:00,
2013-03-14 04:39:00,24.0,9.3,30.24,North,8,3.7,6.5,49,0.00,,,0.00,WSDL version 420,2013-03-14 08:39:00,
2013-03-14 04:44:00,23.9,9.4,30.24,North,360,4.4,10.1,49,0.00,,,0.00,WSDL version 420,2013-03-14 08:44:00,
2013-03-14 04:49:00,23.9,9.1,30.24,WSW,243,2.5,10.1,48,0.00,,,0.00,WSDL version 420,2013-03-14 08:49:00,
2013-03-14 04:54:00,23.8,8.8,30.24,SSW,194,3.4,8.1,48,0.00,,,0.00,WSDL version 420,2013-03-14 08:54:00,
2013-03-14 04:59:00,23.7,9.1,30.24,NW,310,3.9,8.1,49,0.00,,,0.00,WSDL version 420,2013-03-14 08:59:00,
2013-03-14 05:04:00,23.6,8.6,30.24,SSW,193,2.8,6.5,49,0.00,,,0.00,WSDL version 420,2013-03-14 09:04:00,
2013-03-14 05:09:00,23.5,8.9,30.27,NW,318,3.0,6.5,49,0.00,,,0.00,WSDL version 420,2013-03-14 09:09:00,
2013-03-14 05:14:00,23.5,8.6,30.28,West,270,3.3,6.5,49,0.00,,,0.00,WSDL version 420,2013-03-14 09:14:00,
2013-03-14 05:19:00,23.5,8.8,30.28,WSW,253,2.3,8.5,49,0.00,,,0.00,WSDL version 420,2013-03-14 09:19:00,
2013-03-14 05:24:00,23.5,8.9,30.24,WSW,250,1.3,8.5,49,0.00,,,0.00,WSDL version 420,2013-03-14 09:24:00,
2013-03-14 05:29:00,23.5,8.7,30.24,SSW,209,1.4,5.6,49,0.00,,,0.00,WSDL version 420,2013-03-14 09:29:00,
2013-03-14 05:34:00,23.5,8.9,30.24,West,263,1.4,5.6,49,0.00,,,0.00,WSDL version 420,2013-03-14 09:34:00,
2013-03-14 05:39:00,23.5,8.9,30.28,NE,53,1.8,5.6,48,0.00,,,0.00,WSDL version 420,2013-03-14 09:39:00,
2013-03-14 05:44:00,23.5,9.2,30.28,WNW,287,4.4,7.4,50,0.00,,,0.00,WSDL version 420,2013-03-14 09:44:00,
2013-03-14 05:49:00,23.5,9.4,30.28,ENE,68,0.6,7.4,50,0.00,,,0.00,WSDL version 420,2013-03-14 09:49:00,
2013-03-14 05:54:00,23.6,9.5,30.28,SSE,150,1.4,4.7,50,0.00,,,0.00,WSDL version 420,2013-03-14 09:54:00,
2013-03-14 05:59:00,23.5,9.6,30.28,West,265,3.0,4.9,51,0.00,,,0.00,WSDL version 420,2013-03-14 09:59:00,
2013-03-14 06:04:00,23.5,9.4,30.28,South,174,0.5,4.9,51,0.00,,,0.00,WSDL version 420,2013-03-14 10:04:00,
2013-03-14 06:09:00,23.6,10.1,30.28,SW,223,2.8,6.7,52,0.00,,,0.00,WSDL version 420,2013-03-14 10:09:00,
2013-03-14 06:14:00,23.5,9.9,30.28,SE,129,0.9,6.7,52,0.00,,,0.00,WSDL version 420,2013-03-14 10:14:00,
2013-03-14 06:19:00,23.5,9.8,30.28,WNW,295,2.3,5.4,51,0.00,,,0.00,WSDL version 420,2013-03-14 10:19:00,
2013-03-14 06:24:00,23.4,9.9,30.28,WSW,248,1.5,5.4,52,0.00,,,0.00,WSDL version 420,2013-03-14 10:24:00,
2013-03-14 06:29:00,23.3,9.7,30.28,NW,308,2.1,3.6,51,0.00,,,0.00,WSDL version 420,2013-03-14 10:29:00,
2013-03-14 06:34:00,23.2,9.5,30.32,NW,304,2.2,3.8,52,0.00,,,0.00,WSDL version 420,2013-03-14 10:34:00,
2013-03-14 06:39:00,23.0,9.6,30.32,ENE,59,0.4,3.8,52,0.00,,,0.00,WSDL version 420,2013-03-14 10:39:00,
2013-03-14 06:44:00,22.9,9.5,30.32,NW,305,2.3,5.4,52,0.00,,,0.00,WSDL version 420,2013-03-14 10:44:00,
2013-03-14 06:49:00,22.8,9.2,30.32,West,276,2.0,11.2,52,0.00,,,0.00,WSDL version 420,2013-03-14 10:49:00,
2013-03-14 06:54:00,22.8,9.3,30.32,West,263,4.6,11.2,52,0.00,,,0.00,WSDL version 420,2013-03-14 10:54:00,
2013-03-14 06:59:00,22.8,9.3,30.32,WSW,248,3.0,8.1,52,0.00,,,0.00,WSDL version 420,2013-03-14 10:59:00,
2013-03-14 07:04:00,22.6,9.3,30.32,WSW,248,2.2,6.5,52,0.00,,,0.00,WSDL version 420,2013-03-14 11:04:00,
2013-03-14 07:09:00,22.6,9.1,30.32,West,267,2.6,6.0,51,0.00,,,0.00,WSDL version 420,2013-03-14 11:09:00,
2013-03-14 07:14:00,22.5,9.0,30.32,West,267,3.9,6.0,52,0.00,,,0.00,WSDL version 420,2013-03-14 11:14:00,
2013-03-14 07:19:00,22.5,9.2,30.32,West,270,4.3,7.4,52,0.00,,,0.00,WSDL version 420,2013-03-14 11:19:00,
2013-03-14 07:24:00,22.3,9.1,30.32,WNW,283,1.8,7.4,52,0.00,,,0.00,WSDL version 420,2013-03-14 11:24:00,
2013-03-14 07:29:00,22.2,9.1,30.32,WSW,248,3.8,6.0,53,0.00,,,0.00,WSDL version 420,2013-03-14 11:29:00,
2013-03-14 07:34:00,22.1,9.1,30.33,West,280,2.3,7.8,53,0.00,,,0.00,WSDL version 420,2013-03-14 11:34:00,
2013-03-14 07:39:00,22.1,9.1,30.33,West,265,3.8,7.8,53,0.00,,,0.00,WSDL version 420,2013-03-14 11:39:00,
2013-03-14 07:44:00,21.9,9.0,30.33,SW,222,5.4,10.1,53,0.00,,,0.00,WSDL version 420,2013-03-14 11:44:00,
2013-03-14 07:49:00,21.9,9.0,30.33,WNW,286,3.6,10.1,53,0.00,,,0.00,WSDL version 420,2013-03-14 11:49:00,
2013-03-14 07:54:00,21.9,8.9,30.33,West,276,4.4,11.0,53,0.00,,,0.00,WSDL version 420,2013-03-14 11:54:00,
2013-03-14 07:59:00,21.9,8.9,30.33,NNW,329,3.2,11.0,53,0.00,,,0.00,WSDL version 420,2013-03-14 11:59:00,
2013-03-14 08:04:00,21.9,9.0,30.33,NW,313,2.0,5.4,53,0.00,,,0.00,WSDL version 420,2013-03-14 12:04:00,
2013-03-14 08:09:00,21.9,9.0,30.33,North,357,2.3,6.0,53,0.00,,,0.00,WSDL version 420,2013-03-14 12:09:00,
2013-03-14 08:14:00,21.9,9.0,30.33,West,270,4.0,7.6,53,0.00,,,0.00,WSDL version 420,2013-03-14 12:14:00,
2013-03-14 08:19:00,21.9,9.0,30.33,East,84,2.8,7.6,53,0.00,,,0.00,WSDL version 420,2013-03-14 12:19:00,
2013-03-14 08:24:00,22.0,9.0,30.36,WNW,287,2.5,7.2,53,0.00,,,0.00,WSDL version 420,2013-03-14 12:24:00,
2013-03-14 08:29:00,22.0,9.0,30.36,WSW,255,3.9,6.5,53,0.00,,,0.00,WSDL version 420,2013-03-14 12:29:00,
2013-03-14 08:34:00,22.1,9.1,30.36,SW,222,2.4,6.5,53,0.00,,,0.00,WSDL version 420,2013-03-14 12:34:00,
2013-03-14 08:39:00,22.2,9.2,30.33,SW,231,3.4,6.5,53,0.00,,,0.00,WSDL version 420,2013-03-14 12:39:00,
2013-03-14 08:44:00,22.4,9.4,30.33,West,259,3.5,7.8,53,0.00,,,0.00,WSDL version 420,2013-03-14 12:44:00,
2013-03-14 08:49:00,23.2,10.0,30.36,NW,307,3.9,7.8,52,0.00,,,0.00,WSDL version 420,2013-03-14 12:49:00,
2013-03-14 08:54:00,24.3,10.9,30.36,West,278,1.2,6.3,52,0.00,,,0.00,WSDL version 420,2013-03-14 12:54:00,
2013-03-14 08:59:00,24.5,10.8,30.36,SE,132,1.3,5.6,51,0.00,,,0.00,WSDL version 420,2013-03-14 12:59:00,
2013-03-14 09:04:00,24.7,10.6,30.36,WSW,258,3.5,6.5,50,0.00,,,0.00,WSDL version 420,2013-03-14 13:04:00,
2013-03-14 09:09:00,24.7,10.1,30.36,ESE,115,4.8,8.5,48,0.00,,,0.00,WSDL version 420,2013-03-14 13:09:00,
2013-03-14 09:14:00,24.8,9.8,30.36,East,100,3.0,8.5,48,0.00,,,0.00,WSDL version 420,2013-03-14 13:14:00,
2013-03-14 09:19:00,25.7,10.6,30.36,West,281,3.1,6.5,48,0.00,,,0.00,WSDL version 420,2013-03-14 13:19:00,
2013-03-14 09:24:00,26.3,10.4,30.35,SSW,205,5.6,8.9,46,0.00,,,0.00,WSDL version 420,2013-03-14 13:24:00,
2013-03-14 09:29:00,26.9,10.4,30.35,SW,215,3.5,8.9,44,0.00,,,0.00,WSDL version 420,2013-03-14 13:29:00,
2013-03-14 09:34:00,26.8,9.9,30.36,South,188,1.6,12.3,44,0.00,,,0.00,WSDL version 420,2013-03-14 13:34:00,
2013-03-14 09:39:00,27.2,10.2,30.35,SE,141,3.6,12.3,44,0.00,,,0.00,WSDL version 420,2013-03-14 13:39:00,
2013-03-14 09:44:00,27.0,9.8,30.35,WSW,253,3.6,7.2,44,0.00,,,0.00,WSDL version 420,2013-03-14 13:44:00,
2013-03-14 09:49:00,27.7,10.3,30.35,West,273,4.2,7.2,44,0.00,,,0.00,WSDL version 420,2013-03-14 13:49:00,
2013-03-14 09:54:00,28.5,10.7,30.35,WNW,284,6.0,7.8,42,0.00,,,0.00,WSDL version 420,2013-03-14 13:54:00,
2013-03-14 09:59:00,28.7,10.7,30.35,WNW,285,4.8,10.1,42,0.00,,,0.00,WSDL version 420,2013-03-14 13:59:00,
2013-03-14 10:04:00,29.1,11.1,30.35,South,188,2.9,10.1,42,0.00,,,0.00,WSDL version 420,2013-03-14 14:04:00,
2013-03-14 10:09:00,30.1,11.7,30.35,SW,214,2.3,6.5,41,0.00,,,0.00,WSDL version 420,2013-03-14 14:09:00,
2013-03-14 10:14:00,31.2,12.4,30.35,WSW,248,1.5,6.0,41,0.00,,,0.00,WSDL version 420,2013-03-14 14:14:00,
2013-03-14 10:19:00,32.1,12.1,30.34,West,281,2.6,6.3,41,0.00,,,0.00,WSDL version 420,2013-03-14 14:19:00,
2013-03-14 10:24:00,32.8,11.2,30.34,NW,315,4.0,7.6,40,0.00,,,0.00,WSDL version 420,2013-03-14 14:24:00,
2013-03-14 10:29:00,33.7,11.5,30.34,WNW,289,4.1,7.6,39,0.00,,,0.00,WSDL version 420,2013-03-14 14:29:00,
2013-03-14 10:34:00,34.2,10.7,30.34,WSW,253,2.8,6.5,36,0.00,,,0.00,WSDL version 420,2013-03-14 14:34:00,
2013-03-14 10:39:00,34.8,10.9,30.34,West,270,2.9,5.8,37,0.00,,,0.00,WSDL version 420,2013-03-14 14:39:00,
2013-03-14 10:44:00,35.3,10.4,30.34,WSW,242,4.5,8.7,35,0.00,,,0.00,WSDL version 420,2013-03-14 14:44:00,
2013-03-14 10:49:00,35.3,9.6,30.34,WSW,248,2.1,8.7,34,0.00,,,0.00,WSDL version 420,2013-03-14 14:49:00,
2013-03-14 10:54:00,35.5,10.0,30.34,West,280,4.3,7.6,34,0.00,,,0.00,WSDL version 420,2013-03-14 14:54:00,
2013-03-14 10:59:00,35.6,9.7,30.34,SW,215,3.5,7.6,34,0.00,,,0.00,WSDL version 420,2013-03-14 14:59:00,
2013-03-14 11:04:00,34.9,8.7,30.34,NW,307,4.2,6.0,33,0.00,,,0.00,WSDL version 420,2013-03-14 15:04:00,
2013-03-14 11:09:00,35.1,8.8,30.34,WNW,298,5.1,6.3,33,0.00,,,0.00,WSDL version 420,2013-03-14 15:09:00,
2013-03-14 11:14:00,35.4,9.2,30.34,NW,325,2.8,6.3,33,0.00,,,0.00,WSDL version 420,2013-03-14 15:14:00,
2013-03-14 11:19:00,35.7,9.1,30.34,West,273,4.3,8.1,33,0.00,,,0.00,WSDL version 420,2013-03-14 15:19:00,
2013-03-14 11:24:00,35.6,9.3,30.34,SSW,203,3.1,8.1,33,0.00,,,0.00,WSDL version 420,2013-03-14 15:24:00,
2013-03-14 11:29:00,36.2,9.9,30.34,WSW,250,2.8,8.1,33,0.00,,,0.00,WSDL version 420,2013-03-14 15:29:00,
2013-03-14 11:34:00,36.4,9.5,30.34,SSW,205,3.6,7.6,32,0.00,,,0.00,WSDL version 420,2013-03-14 15:34:00,
2013-03-14 11:39:00,36.5,9.7,30.34,WNW,284,1.9,8.5,32,0.00,,,0.00,WSDL version 420,2013-03-14 15:39:00,
2013-03-14 11:44:00,37.5,10.6,30.34,SW,225,3.1,9.4,32,0.00,,,0.00,WSDL version 420,2013-03-14 15:44:00,
2013-03-14 11:49:00,38.3,11.2,30.34,NW,304,1.8,9.4,32,0.00,,,0.00,WSDL version 420,2013-03-14 15:49:00,
2013-03-14 11:54:00,38.7,11.3,30.34,WSW,253,3.4,8.5,31,0.00,,,0.00,WSDL version 420,2013-03-14 15:54:00,
2013-03-14 11:59:00,38.6,10.6,30.34,SW,225,3.7,10.1,31,0.00,,,0.00,WSDL version 420,2013-03-14 15:59:00,
2013-03-14 12:04:00,38.5,10.4,30.34,ENE,76,2.8,10.1,31,0.00,,,0.00,WSDL version 420,2013-03-14 16:04:00,
2013-03-14 12:09:00,38.6,10.4,30.34,SW,222,2.8,7.6,31,0.00,,,0.00,WSDL version 420,2013-03-14 16:09:00,
2013-03-14 12:14:00,38.9,10.6,30.34,WNW,287,3.6,6.3,31,0.00,,,0.00,WSDL version 420,2013-03-14 16:14:00,
2013-03-14 12:19:00,39.7,10.8,30.34,WNW,285,3.3,6.3,30,0.00,,,0.00,WSDL version 420,2013-03-14 16:19:00,
2013-03-14 12:24:00,40.3,11.3,30.34,NW,313,2.6,6.3,30,0.00,,,0.00,WSDL version 420,2013-03-14 16:24:00,
2013-03-14 12:29:00,40.9,11.7,30.33,WSW,253,3.7,7.6,30,0.00,,,0.00,WSDL version 420,2013-03-14 16:29:00,
2013-03-14 12:34:00,40.4,11.3,30.34,West,259,3.4,8.1,30,0.00,,,0.00,WSDL version 420,2013-03-14 16:34:00,
2013-03-14 12:39:00,40.7,11.0,30.33,WNW,287,4.6,8.1,29,0.00,,,0.00,WSDL version 420,2013-03-14 16:39:00,
2013-03-14 12:44:00,41.9,12.0,30.33,WNW,300,3.2,7.2,29,0.00,,,0.00,WSDL version 420,2013-03-14 16:44:00,
2013-03-14 12:49:00,42.2,12.2,30.33,WNW,287,5.8,8.5,29,0.00,,,0.00,WSDL version 420,2013-03-14 16:49:00,
2013-03-14 12:54:00,41.2,11.4,30.33,WSW,253,4.3,8.5,29,0.00,,,0.00,WSDL version 420,2013-03-14 16:54:00,
2013-03-14 12:59:00,42.0,12.1,30.33,SW,222,3.6,8.7,29,0.00,,,0.00,WSDL version 420,2013-03-14 16:59:00,
2013-03-14 13:04:00,41.9,11.8,30.33,WSW,248,5.1,8.7,29,0.00,,,0.00,WSDL version 420,2013-03-14 17:04:00,
2013-03-14 13:09:00,41.6,11.7,30.33,West,273,4.0,10.1,29,0.00,,,0.00,WSDL version 420,2013-03-14 17:09:00,
2013-03-14 13:14:00,42.0,11.9,30.33,WNW,295,2.3,10.1,29,0.00,,,0.00,WSDL version 420,2013-03-14 17:14:00,
2013-03-14 13:19:00,43.3,13.1,30.36,WSW,243,3.1,6.7,28,0.00,,,0.00,WSDL version 420,2013-03-14 17:19:00,
2013-03-14 13:24:00,43.9,12.9,30.36,West,270,4.4,7.8,28,0.00,,,0.00,WSDL version 420,2013-03-14 17:24:00,
2013-03-14 13:29:00,43.6,12.7,30.36,West,260,5.2,8.7,28,0.00,,,0.00,WSDL version 420,2013-03-14 17:29:00,
2013-03-14 13:34:00,44.2,13.2,30.36,WNW,284,3.6,8.7,28,0.00,,,0.00,WSDL version 420,2013-03-14 17:34:00,
2013-03-14 13:39:00,44.1,12.9,30.33,West,281,4.3,10.1,28,0.00,,,0.00,WSDL version 420,2013-03-14 17:39:00,
2013-03-14 13:44:00,44.4,13.1,30.33,West,260,3.2,10.1,28,0.00,,,0.00,WSDL version 420,2013-03-14 17:44:00,
2013-03-14 13:49:00,44.5,13.1,30.33,West,278,2.6,9.2,27,0.00,,,0.00,WSDL version 420,2013-03-14 17:49:00,
2013-03-14 13:54:00,44.5,13.2,30.33,SSW,195,2.5,9.2,27,0.00,,,0.00,WSDL version 420,2013-03-14 17:54:00,
2013-03-14 13:59:00,45.3,13.4,30.33,WSW,251,3.8,7.2,27,0.00,,,0.00,WSDL version 420,2013-03-14 17:59:00,
2013-03-14 14:04:00,45.3,12.1,30.33,NW,321,3.9,7.6,26,0.00,,,0.00,WSDL version 420,2013-03-14 18:04:00,
2013-03-14 14:14:00,46.8,14.1,30.32,West,281,3.8,8.1,27,0.00,,,0.00,WSDL version 420,2013-03-14 18:14:00,
2013-03-14 14:24:00,46.9,12.0,30.33,North,354,3.2,6.0,24,0.00,,,0.00,WSDL version 420,2013-03-14 18:24:00,
2013-03-14 14:29:00,47.3,12.3,30.32,WNW,290,3.6,6.5,24,0.00,,,0.00,WSDL version 420,2013-03-14 18:29:00,
2013-03-14 14:34:00,48.0,12.9,30.32,SW,222,3.1,6.5,24,0.00,,,0.00,WSDL version 420,2013-03-14 18:34:00,
2013-03-14 14:39:00,48.1,12.0,30.32,SW,223,3.2,12.3,22,0.00,,,0.00,WSDL version 420,2013-03-14 18:39:00,
2013-03-14 14:44:00,46.9,10.0,30.33,North,8,4.6,12.3,22,0.00,,,0.00,WSDL version 420,2013-03-14 18:44:00,
2013-03-14 14:49:00,46.7,10.3,30.29,WSW,254,7.7,11.0,22,0.00,,,0.00,WSDL version 420,2013-03-14 18:49:00,
2013-03-14 14:54:00,46.8,10.0,30.29,SW,228,4.2,12.1,22,0.00,,,0.00,WSDL version 420,2013-03-14 18:54:00,
2013-03-14 14:59:00,46.5,9.7,30.29,SSW,205,3.2,12.1,22,0.00,,,0.00,WSDL version 420,2013-03-14 18:59:00,
2013-03-14 15:04:00,46.8,10.0,30.29,WSW,248,4.6,11.9,22,0.00,,,0.00,WSDL version 420,2013-03-14 19:04:00,
2013-03-14 15:09:00,46.8,10.0,30.29,NNW,329,4.0,8.7,22,0.00,,,0.00,WSDL version 420,2013-03-14 19:09:00,
2013-03-14 15:14:00,47.4,10.5,30.29,NNE,14,3.9,12.5,22,0.00,,,0.00,WSDL version 420,2013-03-14 19:14:00,
2013-03-14 15:19:00,47.8,10.8,30.29,West,270,3.7,12.5,22,0.00,,,0.00,WSDL version 420,2013-03-14 19:19:00,
2013-03-14 15:24:00,47.8,10.8,30.29,ESE,113,4.5,7.8,22,0.00,,,0.00,WSDL version 420,2013-03-14 19:24:00,
2013-03-14 15:29:00,47.7,10.5,30.29,SE,140,5.5,13.0,22,0.00,,,0.00,WSDL version 420,2013-03-14 19:29:00,
2013-03-14 15:34:00,47.5,10.6,30.29,WSW,245,5.5,13.0,22,0.00,,,0.00,WSDL version 420,2013-03-14 19:34:00,
2013-03-14 15:39:00,47.5,10.5,30.29,South,188,1.7,10.3,22,0.00,,,0.00,WSDL version 420,2013-03-14 19:39:00,
2013-03-14 15:49:00,46.8,9.9,30.29,WSW,248,2.9,15.4,22,0.00,,,0.00,WSDL version 420,2013-03-14 19:49:00,
2013-03-14 15:54:00,46.8,9.9,30.29,East,98,1.9,5.8,22,0.00,,,0.00,WSDL version 420,2013-03-14 19:54:00,
2013-03-14 15:59:00,47.1,8.6,30.29,North,357,4.7,8.1,19,0.00,,,0.00,WSDL version 420,2013-03-14 19:59:00,
2013-03-14 16:04:00,46.4,7.2,30.29,SSW,213,4.7,12.5,19,0.00,,,0.00,WSDL version 420,2013-03-14 20:04:00,
2013-03-14 16:09:00,46.4,7.9,30.30,South,174,2.1,15.2,22,0.00,,,0.00,WSDL version 420,2013-03-14 20:09:00,
2013-03-14 16:14:00,46.9,7.9,30.29,SSW,203,3.1,15.2,22,0.00,,,0.00,WSDL version 420,2013-03-14 20:14:00,
2013-03-14 16:19:00,47.3,9.1,30.29,SW,217,4.9,8.5,22,0.00,,,0.00,WSDL version 420,2013-03-14 20:19:00,
2013-03-14 16:24:00,47.0,9.0,30.29,North,5,3.1,10.5,19,0.00,,,0.00,WSDL version 420,2013-03-14 20:24:00,
2013-03-14 16:29:00,46.0,7.6,30.30,East,87,2.9,10.5,20,0.00,,,0.00,WSDL version 420,2013-03-14 20:29:00,
2013-03-14 16:34:00,45.4,8.3,30.30,ESE,113,2.8,9.6,22,0.00,,,0.00,WSDL version 420,2013-03-14 20:34:00,
2013-03-14 16:39:00,45.0,7.4,30.30,WSW,248,3.0,7.8,22,0.00,,,0.00,WSDL version 420,2013-03-14 20:39:00,
2013-03-14 16:44:00,45.0,7.4,30.30,SE,129,3.7,7.8,20,0.00,,,0.00,WSDL version 420,2013-03-14 20:44:00,
2013-03-14 16:49:00,44.4,7.7,30.30,NNW,343,1.4,6.3,23,0.00,,,0.00,WSDL version 420,2013-03-14 20:49:00,
2013-03-14 16:54:00,43.9,8.0,30.30,SW,215,3.5,10.5,20,0.00,,,0.00,WSDL version 420,2013-03-14 20:54:00,
2013-03-14 16:59:00,43.2,6.8,30.30,NE,38,3.9,10.5,20,0.00,,,0.00,WSDL version 420,2013-03-14 20:59:00,
2013-03-14 17:09:00,43.1,5.3,30.27,North,3,4.3,10.5,20,0.00,,,0.00,WSDL version 420,2013-03-14 21:09:00,
2013-03-14 17:14:00,43.3,6.4,30.27,West,278,3.2,10.5,23,0.00,,,0.00,WSDL version 420,2013-03-14 21:14:00,
2013-03-14 17:21:00,44.1,8.7,30.27,ESE,107,1.5,5.8,23,0.00,,,0.00,WSDL version 420,2013-03-14 21:21:00,
2013-03-14 17:25:00,44.1,8.6,30.27,WSW,248,2.0,4.7,23,0.00,,,0.00,WSDL version 420,2013-03-14 21:25:00,
2013-03-14 17:30:00,44.1,8.7,30.27,ESE,113,0.5,4.3,23,0.00,,,0.00,WSDL version 420,2013-03-14 21:30:00,
2013-03-14 17:35:00,44.0,8.6,30.27,East,82,3.0,10.1,23,0.00,,,0.00,WSDL version 420,2013-03-14 21:35:00,
2013-03-14 17:40:00,43.3,7.5,30.27,NW,325,2.5,10.1,23,0.00,,,0.00,WSDL version 420,2013-03-14 21:40:00,
2013-03-14 17:45:00,43.0,7.7,30.27,SSW,200,2.2,9.8,23,0.00,,,0.00,WSDL version 420,2013-03-14 21:45:00,
2013-03-14 17:50:00,43.0,7.7,30.27,WSW,240,1.8,5.6,23,0.00,,,0.00,WSDL version 420,2013-03-14 21:50:00,
2013-03-14 17:55:00,42.7,7.4,30.27,NNW,329,2.3,8.5,23,0.00,,,0.00,WSDL version 420,2013-03-14 21:55:00,
2013-03-14 18:00:00,42.2,7.0,30.27,North,354,4.4,8.5,23,0.00,,,0.00,WSDL version 420,2013-03-14 22:00:00,
2013-03-14 18:05:00,41.8,6.7,30.27,WNW,285,2.7,7.8,23,0.00,,,0.00,WSDL version 420,2013-03-14 22:05:00,
2013-03-14 18:10:00,41.8,6.3,30.27,West,280,4.3,6.0,23,0.00,,,0.00,WSDL version 420,2013-03-14 22:10:00,
2013-03-14 18:15:00,41.6,6.6,30.27,NNW,328,3.6,6.5,23,0.00,,,0.00,WSDL version 420,2013-03-14 22:15:00,
2013-03-14 18:20:00,41.1,6.1,30.31,WSW,253,4.6,6.5,23,0.00,,,0.00,WSDL version 420,2013-03-14 22:20:00,
2013-03-14 18:25:00,40.7,5.5,30.31,West,270,3.4,8.1,23,0.00,,,0.00,WSDL version 420,2013-03-14 22:25:00,
2013-03-14 18:30:00,40.6,5.7,30.31,West,260,2.3,8.1,23,0.00,,,0.00,WSDL version 420,2013-03-14 22:30:00,
2013-03-14 18:35:00,40.5,5.6,30.28,WNW,284,3.0,5.6,23,0.00,,,0.00,WSDL version 420,2013-03-14 22:35:00,
2013-03-14 18:40:00,40.3,5.4,30.28,ESE,103,1.4,6.3,23,0.00,,,0.00,WSDL version 420,2013-03-14 22:40:00,
2013-03-14 18:45:00,39.8,5.0,30.28,SW,217,1.8,6.3,23,0.00,,,0.00,WSDL version 420,2013-03-14 22:45:00,
2013-03-14 18:50:00,39.4,4.7,30.28,ENE,68,1.0,3.8,23,0.00,,,0.00,WSDL version 420,2013-03-14 22:50:00,
2013-03-14 18:55:00,39.1,3.7,30.28,WSW,238,2.4,7.4,24,0.00,,,0.00,WSDL version 420,2013-03-14 22:55:00,
2013-03-14 19:00:00,38.8,4.1,30.28,East,85,1.9,7.4,24,0.00,,,0.00,WSDL version 420,2013-03-14 23:00:00,
2013-03-14 19:05:00,38.6,4.9,30.28,SE,145,1.4,4.9,24,0.00,,,0.00,WSDL version 420,2013-03-14 23:05:00,
2013-03-14 19:10:00,38.4,4.7,30.28,West,278,3.0,4.9,24,0.00,,,0.00,WSDL version 420,2013-03-14 23:10:00,
2013-03-14 19:15:00,38.1,4.0,30.28,West,273,3.5,8.7,23,0.00,,,0.00,WSDL version 420,2013-03-14 23:15:00,
2013-03-14 19:20:00,38.0,3.8,30.28,West,259,1.7,8.7,24,0.00,,,0.00,WSDL version 420,2013-03-14 23:20:00,
2013-03-14 19:25:00,37.8,4.2,30.28,WNW,295,2.1,6.0,24,0.00,,,0.00,WSDL version 420,2013-03-14 23:25:00,
2013-03-14 19:30:00,37.5,3.9,30.28,NNE,31,2.0,6.0,24,0.00,,,0.00,WSDL version 420,2013-03-14 23:30:00,
2013-03-14 19:35:00,37.3,3.8,30.28,SSW,200,1.3,6.0,24,0.00,,,0.00,WSDL version 420,2013-03-14 23:35:00,
2013-03-14 19:40:00,37.0,3.5,30.28,NNW,329,0.0,6.0,24,0.00,,,0.00,WSDL version 420,2013-03-14 23:40:00,
2013-03-14 19:45:00,36.7,3.2,30.29,West,275,1.2,4.3,24,0.00,,,0.00,WSDL version 420,2013-03-14 23:45:00,
2013-03-14 19:50:00,36.2,2.9,30.29,South,186,0.4,3.6,24,0.00,,,0.00,WSDL version 420,2013-03-14 23:50:00,
2013-03-14 19:55:00,36.1,2.8,30.29,South,186,1.8,4.3,24,0.00,,,0.00,WSDL version 420,2013-03-14 23:55:00,
2013-03-14 20:00:00,35.8,2.5,30.29,South,191,0.0,4.3,24,0.00,,,0.00,WSDL version 420,2013-03-15 00:00:00,
2013-03-14 20:05:00,35.5,2.7,30.29,NE,48,1.3,6.0,25,0.00,,,0.00,WSDL version 420,2013-03-15 00:05:00,
2013-03-14 20:10:00,35.3,3.2,30.29,WSW,243,2.3,6.0,27,0.00,,,0.00,WSDL version 420,2013-03-15 00:10:00,
2013-03-14 20:15:00,35.1,3.3,30.29,WSW,253,3.0,4.9,26,0.00,,,0.00,WSDL version 420,2013-03-15 00:15:00,
2013-03-14 20:20:00,35.0,3.4,30.29,WNW,290,1.2,4.9,27,0.00,,,0.00,WSDL version 420,2013-03-15 00:20:00,
2013-03-14 20:25:00,34.7,3.3,30.29,WNW,293,1.7,3.4,27,0.00,,,0.00,WSDL version 420,2013-03-15 00:25:00,
2013-03-14 20:30:00,34.4,3.9,30.29,WNW,283,2.2,3.4,27,0.00,,,0.00,WSDL version 420,2013-03-15 00:30:00,
2013-03-14 20:35:00,34.1,3.6,30.29,WNW,288,3.2,4.3,27,0.00,,,0.00,WSDL version 420,2013-03-15 00:35:00,
2013-03-14 20:40:00,33.9,3.4,30.29,WSW,250,2.3,4.3,27,0.00,,,0.00,WSDL version 420,2013-03-15 00:40:00,
2013-03-14 20:45:00,33.8,5.7,30.29,WNW,290,1.0,4.0,30,0.00,,,0.00,WSDL version 420,2013-03-15 00:45:00,
2013-03-14 20:50:00,33.8,5.6,30.29,West,278,2.8,3.8,30,0.00,,,0.00,WSDL version 420,2013-03-15 00:50:00,
2013-03-14 20:55:00,33.8,5.6,30.29,West,273,3.5,7.6,30,0.00,,,0.00,WSDL version 420,2013-03-15 00:55:00,
2013-03-14 21:00:00,33.8,5.6,30.29,WSW,243,3.2,7.6,30,0.00,,,0.00,WSDL version 420,2013-03-15 01:00:00,
2013-03-14 21:05:00,33.7,5.7,30.32,WNW,293,2.9,6.5,31,0.00,,,0.00,WSDL version 420,2013-03-15 01:05:00,
2013-03-14 21:10:00,33.6,6.0,30.32,WSW,255,1.1,4.9,31,0.00,,,0.00,WSDL version 420,2013-03-15 01:10:00,
2013-03-14 21:15:00,33.6,6.2,30.32,West,267,3.4,6.5,31,0.00,,,0.00,WSDL version 420,2013-03-15 01:15:00,
2013-03-14 21:20:00,33.5,6.1,30.28,West,273,0.0,6.5,31,0.00,,,0.00,WSDL version 420,2013-03-15 01:20:00,
2013-03-14 21:25:00,33.1,5.7,30.28,NW,304,0.0,3.4,31,0.00,,,0.00,WSDL version 420,2013-03-15 01:25:00,
2013-03-14 21:30:00,32.9,5.6,30.28,West,263,0.9,3.4,31,0.00,,,0.00,WSDL version 420,2013-03-15 01:30:00,
2013-03-14 21:35:00,32.8,5.5,30.32,South,188,0.0,2.9,31,0.00,,,0.00,WSDL version 420,2013-03-15 01:35:00,
2013-03-14 21:40:00,32.6,5.5,30.32,WSW,248,0.7,3.1,31,0.00,,,0.00,WSDL version 420,2013-03-15 01:40:00,
2013-03-14 21:45:00,32.4,5.8,30.32,WSW,258,1.9,5.4,32,0.00,,,0.00,WSDL version 420,2013-03-15 01:45:00,
2013-03-14 21:50:00,32.5,6.0,30.28,WSW,242,2.8,5.4,33,0.00,,,0.00,WSDL version 420,2013-03-15 01:50:00,
2013-03-14 21:55:00,32.8,6.2,30.28,SW,235,4.0,7.6,32,0.00,,,0.00,WSDL version 420,2013-03-15 01:55:00,
2013-03-14 22:00:00,33.2,6.6,30.28,WNW,286,3.6,7.6,32,0.00,,,0.00,WSDL version 420,2013-03-15 02:00:00,
2013-03-14 22:05:00,33.0,6.6,30.31,WNW,285,4.2,6.5,32,0.00,,,0.00,WSDL version 420,2013-03-15 02:05:00,
2013-03-14 22:10:00,33.1,6.5,30.31,WSW,248,2.3,6.3,33,0.00,,,0.00,WSDL version 420,2013-03-15 02:10:00,
2013-03-14 22:15:00,32.8,6.6,30.31,West,264,3.0,6.5,33,0.00,,,0.00,WSDL version 420,2013-03-15 02:15:00,
2013-03-14 22:20:00,32.7,6.4,30.27,West,260,5.4,7.4,32,0.00,,,0.00,WSDL version 420,2013-03-15 02:20:00,
2013-03-14 22:25:00,32.7,6.6,30.27,West,270,2.9,7.4,33,0.00,,,0.00,WSDL version 420,2013-03-15 02:25:00,
2013-03-14 22:30:00,32.4,6.7,30.27,SSW,200,1.4,5.4,33,0.00,,,0.00,WSDL version 420,2013-03-15 02:30:00,
2013-03-14 22:35:00,32.4,6.8,30.30,SW,233,3.2,5.4,34,0.00,,,0.00,WSDL version 420,2013-03-15 02:35:00,
2013-03-14 22:40:00,32.5,7.0,30.30,West,280,0.9,5.6,34,0.00,,,0.00,WSDL version 420,2013-03-15 02:40:00,
2013-03-14 22:45:00,32.2,8.3,30.30,NW,315,2.7,5.6,34,0.00,,,0.00,WSDL version 420,2013-03-15 02:45:00,
2013-03-14 22:50:00,32.0,9.1,30.30,SW,230,4.2,6.0,34,0.00,,,0.00,WSDL version 420,2013-03-15 02:50:00,
2013-03-14 22:55:00,32.2,7.4,30.30,West,278,3.4,6.0,34,0.00,,,0.00,WSDL version 420,2013-03-15 02:55:00,
2013-03-14 23:00:00,32.2,7.0,30.30,SW,217,1.8,6.0,34,0.00,,,0.00,WSDL version 420,2013-03-15 03:00:00,
2013-03-14 23:05:00,32.3,7.4,30.30,WSW,250,1.7,6.0,35,0.00,,,0.00,WSDL version 420,2013-03-15 03:05:00,
2013-03-14 23:10:00,32.0,9.4,30.30,West,262,2.9,5.4,36,0.00,,,0.00,WSDL version 420,2013-03-15 03:10:00,
2013-03-14 23:15:00,31.6,9.8,30.30,WNW,295,0.6,5.4,35,0.00,,,0.00,WSDL version 420,2013-03-15 03:15:00,
2013-03-14 23:20:00,31.4,9.3,30.30,SW,233,0.0,3.8,34,0.00,,,0.00,WSDL version 420,2013-03-15 03:20:00,
2013-03-14 23:25:00,31.3,10.1,30.30,NW,318,2.1,4.5,38,0.00,,,0.00,WSDL version 420,2013-03-15 03:25:00,
2013-03-14 23:30:00,31.6,9.8,30.30,SSW,195,0.0,4.5,35,0.00,,,0.00,WSDL version 420,2013-03-15 03:30:00,
2013-03-14 23:35:00,31.3,10.0,30.30,West,270,2.0,3.1,36,0.00,,,0.00,WSDL version 420,2013-03-15 03:35:00,
2013-03-14 23:40:00,30.7,10.0,30.30,West,267,2.6,3.6,37,0.00,,,0.00,WSDL version 420,2013-03-15 03:40:00,
2013-03-14 23:45:00,30.6,10.0,30.30,North,349,1.0,3.6,37,0.00,,,0.00,WSDL version 420,2013-03-15 03:45:00,
2013-03-14 23:50:00,30.7,9.7,30.27,WSW,255,0.9,3.4,38,0.00,,,0.00,WSDL version 420,2013-03-15 03:50:00,
2013-03-14 23:55:00,30.4,10.1,30.27,WNW,303,0.0,2.9,37,0.00,,,0.00,WSDL version 420,2013-03-15 03:55:00,